Regional Weather Roundup
Issued by NWS Albany, NY

Home | Current Version | Previous Version | Graphics & Text | Print | Product List | Glossary On
Versions: 1 2 3 4 5 6 7 8 9 10 11 12 13 14 15 16 17 18 19 20 21 22 23 24 25 26 27 28 29 30 31 32 33 34 35 36 37 38 39 40 41 42 43 44 45 46 47 48 49 50
000
ASUS41 KALY 312110
RWRALY

NEW YORK STATE HOURLY WEATHER ROUNDUP
NATIONAL WEATHER SERVICE ALBANY NY
500 PM EDT MON AUG 31 2015

NOTE: "FAIR" INDICATES FEW OR NO CLOUDS BELOW 12,000 FEET WITH NO
SIGNIFICANT WEATHER AND/OR NO OBSTRUCTIONS TO VISIBILITY.

NYZ032-033-038>043-046>054-057>066-NYZ062>081-312200-
EAST


CITY           SKY/WX    TMP DP  RH WIND       PRES   REMARKS
ALBANY         FAIR      85  63  47 NW16G24   29.93S
GLENS FALLS    FAIR      85  60  42 NW17      29.91R
POUGHKEEPSIE   FAIR      90  64  42 W13       29.92F HX  91
MONTGOMERY     FAIR      88  67  49 W9        29.95S HX  91
WHITE PLAINS   FAIR      89  64  43 W10G17    29.95S HX  90
ISLIP          CLOUDY    86  67  52 SW15G22   29.93F
NEW YORK CITY  PTSUNNY   91  63  39 W15       29.93F HX  92
CENTRAL PARK   FAIR      90  63  40 VRB3      29.97F HX  91
$$

NYZ005>009-017-018-044>046-055-056-312200-
CENTRAL


CITY           SKY/WX    TMP DP  RH WIND       PRES   REMARKS
FULTON         FAIR      79  65  62 NW9       30.00S
SYRACUSE       FAIR      81  67  62 NW14      29.99S
ROME           PTSUNNY   81  65  58 NW18      29.99S
ELMIRA         FAIR      88  64  44 NW8       29.99F
BINGHAMTON     FAIR      82  64  54 NW12G17   30.03F
MONTICELLO     FAIR      82  66  57 NW10      30.02F
$$

NYZ026>034-041>043-312200-
NORTH


CITY           SKY/WX    TMP DP  RH WIND       PRES   REMARKS
WATERTOWN      FAIR      76  66  71 SW12      29.97F HAZE
FORT DRUM      NOT AVBL
MASSENA        FAIR      78  65  63 NW8       29.95S
SARANAC LAKE   PTSUNNY   74  62  66 W7        29.98S
PLATTSBURGH    PTSUNNY   81  62  52 NW12      29.91S
$$

NYZ001>004-010>016-019>021-312200-
WEST


CITY           SKY/WX    TMP DP  RH WIND       PRES   REMARKS
NIAGARA FALLS  FAIR      81  68  64 SW14      30.01S
BUFFALO        FAIR      78  68  71 SW17      30.03S
DUNKIRK        FAIR      77  68  73 W13       30.06S
JAMESTOWN      FAIR      79  63  57 NW12      30.10S
WELLSVILLE     FAIR      83  61  47 W13       30.10F
ROCHESTER      PTSUNNY   81  67  62 N9        30.00F
PENN YAN       FAIR      83  64  52 W8        30.02F
$$

             KEY
       WCI = WIND CHILL INDEX
       VSB = VISIBILITY
       HX  = HEAT INDEX
$$


USA.gov is the U.S. government's official web portal to all federal, state and local government web resources and services.